Valladolid Airport, Spain

2:45 AM CEST on August 20, 2017 (GMT +0200)
Villanubla

Weather History for LEVD - December, 2012

Change the Weather History Date:

Tuesday, December 18, 2012

  Actual Average Record
Temperature  
Mean Temperature 44 °F -  
Max Temperature 50 °F - - ()
Min Temperature 39 °F - - ()
Degree Days  
Heating Degree Days 20    
Moisture  
Dew Point 45 °F    
Average Humidity 100    
Maximum Humidity 100    
Minimum Humidity 100    
Precipitation  
Precipitation 0.00 in - - ()
Sea Level Pressure  
Sea Level Pressure 30.19 in    
Wind  
Wind Speed 5 mph ()    
Max Wind Speed 15 mph    
Max Gust Speed -    
Visibility 4.4 miles    
Events Fog , Rain    
T = Trace of Precipitation, MM = Missing Value Source: Averaged Metar Reports

Daily Weather History Graph

Daily Weather History Graph

Search for Another Location

Airport or City:

Trip Planner

Search our weather history database for the weather conditions in past years. The results will help you decide how hot, cold, wet, or windy it might be!

Date:

Astronomy

Dec. 18, 2012 Rise Set
Actual Time 8:41 AM CET 5:50 PM CET
Civil Twilight 8:10 AM CET 6:22 PM CET
Nautical Twilight 7:34 AM CET 6:57 PM CET
Astronomical Twilight 7:01 AM CET 7:31 PM CET
Moon 12:10 PM CET (12/18) No Moon Set
Length of Visible Light 10h 12m
Length of Day
9h 09m
Waxing Crescent, 32% of the Moon is Illuminated
Dec 18
Waxing Crescent
Dec 20
First Quarter
Dec 28
Full
Jan 5
Last Quarter
Jan 11
New

Hourly Weather History & Observations

Time (CET) Temp. Windchill Dew Point Humidity Pressure Visibility Wind Dir Wind Speed Gust Speed Precip Events Conditions
6:00 AM 39.2 °F 35.9 °F 39.2 °F 100% 30.21 in 6.2 mi South 4.6 mph - N/A   Light Drizzle
6:30 AM 39.2 °F - 39.2 °F 100% 30.21 in 5.0 mi Variable 2.3 mph - N/A   Light Drizzle
7:00 AM 39.2 °F - 39.2 °F 100% 30.21 in 6.2 mi South 2.3 mph - N/A   Scattered Clouds
7:30 AM 39.2 °F 37.0 °F 39.2 °F 100% 30.21 in 6.2 mi South 3.5 mph - N/A   Scattered Clouds
8:00 AM 39.2 °F 37.0 °F 39.2 °F 100% 30.21 in 6.2 mi South 3.5 mph - N/A   Scattered Clouds
8:30 AM 39.2 °F 37.0 °F 39.2 °F 100% 30.21 in 6.2 mi SSW 3.5 mph - N/A   Scattered Clouds
9:00 AM 39.2 °F - 39.2 °F 100% 30.21 in 6.2 mi Variable 2.3 mph - N/A   Mostly Cloudy
9:30 AM 41.0 °F - 41.0 °F 100% 30.21 in 6.2 mi SW 2.3 mph - N/A   Mostly Cloudy
9:35 AM 41.0 °F - 41.0 °F 100% 30.21 in 4.3 mi SW 2.3 mph - N/A   Mostly Cloudy
9:39 AM 41.0 °F - 41.0 °F 100% 30.21 in 4.3 mi SW 2.3 mph - N/A Rain Rain
10:00 AM 41.0 °F - 41.0 °F 100% 30.21 in 3.7 mi Variable 1.2 mph - N/A Rain Rain
10:30 AM 41.0 °F - 41.0 °F 100% 30.21 in 3.7 mi SW 2.3 mph - N/A Rain Rain
11:00 AM 42.8 °F 41.1 °F 42.8 °F 100% 30.21 in 5.0 mi South 3.5 mph - N/A Rain Rain
11:30 AM 42.8 °F 40.1 °F 42.8 °F 100% 30.21 in 3.7 mi South 4.6 mph - N/A   Mostly Cloudy
12:00 PM 42.8 °F 38.6 °F 42.8 °F 100% 30.21 in 2.5 mi South 6.9 mph - N/A Rain Rain
12:30 PM 42.8 °F 39.3 °F 42.8 °F 100% 30.21 in 1.9 mi SSW 5.8 mph - N/A Rain Rain
1:00 PM 44.6 °F 40.7 °F 44.6 °F 100% 30.21 in 2.2 mi SSW 6.9 mph - N/A Rain Rain
1:30 PM 46.4 °F 42.9 °F 46.4 °F 100% 30.18 in 3.7 mi SSW 6.9 mph - N/A Rain Rain
2:00 PM 46.4 °F 42.4 °F 46.4 °F 100% 30.18 in 5.0 mi SSW 8.1 mph - N/A Rain Rain
2:30 PM 48.2 °F - 48.2 °F 100% 30.18 in 5.0 mi SW 9.2 mph - N/A Rain Light Rain
3:00 PM 48.2 °F - 48.2 °F 100% 30.18 in 2.5 mi WSW 11.5 mph - N/A Rain Rain
3:30 PM 48.2 °F - 48.2 °F 100% 30.18 in 6.2 mi WSW 11.5 mph - N/A   Overcast
4:00 PM 50.0 °F - 50.0 °F 100% 30.18 in 5.0 mi West 15.0 mph - N/A   Overcast
4:30 PM 50.0 °F - 50.0 °F 100% 30.18 in 6.2 mi West 12.7 mph - N/A   Overcast
5:00 PM 50.0 °F - 50.0 °F 100% 30.18 in 6.2 mi West 13.8 mph - N/A   Overcast
5:30 PM 50.0 °F - 50.0 °F 100% 30.18 in 6.2 mi West 12.7 mph - N/A   Overcast
6:00 PM 50.0 °F - 50.0 °F 100% 30.18 in 6.2 mi West 11.5 mph - N/A   Overcast
6:30 PM 50.0 °F - 50.0 °F 100% 30.18 in 6.2 mi West 11.5 mph - N/A   Overcast
7:00 PM 48.2 °F - 48.2 °F 100% 30.18 in 4.3 mi West 9.2 mph - N/A   Overcast
7:30 PM 48.2 °F - 48.2 °F 100% 30.18 in 1.9 mi WSW 8.1 mph - N/A   Overcast
8:00 PM 48.2 °F - 48.2 °F 100% 30.18 in 0.9 mi WSW 10.4 mph - N/A   Overcast
8:30 PM 48.2 °F - 48.2 °F 100% 30.18 in 0.6 mi WSW 8.1 mph - N/A Fog Fog
9:00 PM 48.2 °F - 48.2 °F 100% 30.18 in 1.1 mi WSW 5.8 mph - N/A   Overcast
9:30 PM 48.2 °F - 48.2 °F 100% 30.18 in 1.9 mi WSW 8.1 mph - N/A   Overcast
10:00 PM 48.2 °F - 48.2 °F 100% 30.18 in 3.1 mi SW 8.1 mph - N/A   Overcast
10:30 PM 48.2 °F - 48.2 °F 100% 30.18 in 5.0 mi SW 5.8 mph - N/A   Overcast